Passo Tonale, Italy 16 day weather forecast

Slopes altitude range 1120 m - 3015m

Number of lifts: 30 Pistes: 100km

In some cases the lift and piste totals shown are for the ski domain (e.g. Three Valleys) rather than individual resort (e.g. Courchevel)

Overview

The 16 day weather forecast is fully updated 4 times every day.

    • Sun 26 MAY 2019
    • Sun 26
    • 1C 6C
    • Mon 27 MAY 2019
    • Mon 27
    • 4C 7C
    • Tue 28 MAY 2019
    • Tue 28
    • 2C 3C
    • Wed 29 MAY 2019
    • Wed 29
    • -2C 0C
    • Thu 30 MAY 2019
    • Thu 30
    • -1C 4C
    • Fri 31 MAY 2019
    • Fri 31
    • 3C 9C
    • Sat 01 JUN 2019
    • Sat 01
    • 5C 12C
    • Sun 02 JUN 2019
    • Sun 02
    • 8C 16C
    • Mon 03 JUN 2019
    • Mon 03
    • 6C 11C
    • Tue 04 JUN 2019
    • Tue 04
    • 6C 11C
    • Wed 05 JUN 2019
    • Wed 05
    • 5C 13C
    • Thu 06 JUN 2019
    • Thu 06
    • 5C 12C
    • Fri 07 JUN 2019
    • Fri 07
    • 3C 17C
    • Sat 08 JUN 2019
    • Sat 08
    • 2C 17C
    • Sun 09 JUN 2019
    • Sun 09
    • 2C 12C
    • Mon 10 JUN 2019
    • Mon 10
    • 3C 15C

Date:

Time Type 0°C level Temp Chill Snow Cloud Speed Gust Dir Press
3:00 2600m 0°C 0_3 2cm 100% 3mph 4mph 1017mB
6:00 2634m 0°C 0_3 2cm 95% 3mph 4mph 1017mB
9:00 2775m 1°C 1_3 1cm 75% 3mph 4mph 1016mB
12:00 3006m 6°C 6_3 0cm 77% 3mph 3mph 1015mB
15:00 3107m 7°C 7_2 0cm 95% 2mph 3mph 1014mB
18:00 3099m 7°C 7_2 0cm 97% 2mph 3mph 1014mB
21:00 3037m 1°C 1_2 0cm 95% 2mph 2mph 1015mB
0:00 2885m 0°C 0_3 0cm 95% 3mph 3mph 1015mB
3:00 2612m 0°C 0_3 0cm 91% 3mph 4mph 1013mB
6:00 3027m -1°C -1_3 0cm 93% 3mph 4mph 1012mB
9:00 3036m 4°C 4_3 0cm 99% 3mph 4mph 1012mB
12:00 3149m 7°C 7_2 0cm 100% 2mph 3mph 1010mB
15:00 3200m 6°C 6_2 0cm 98% 2mph 3mph 1009mB
18:00 3194m 6°C 6_4 0cm 99% 4mph 5mph 1009mB
21:00 3092m 3°C 3_5 0cm 100% 5mph 7mph 1009mB
0:00 2979m 2°C 2_6 0cm 100% 6mph 7mph 1007mB
3:00 2938m 2°C 2_5 0cm 100% 5mph 7mph 1006mB
6:00 2850m 2°C 2_6 2cm 100% 6mph 9mph 1006mB
9:00 2727m 2°C 2_6 4cm 100% 6mph 9mph 1007mB
12:00 2717m 3°C 3_6 4cm 100% 6mph 9mph 1007mB
15:00 2640m 3°C 3_7 3cm 100% 7mph 9mph 1006mB
18:00 2564m 3°C 3_6 2cm 99% 6mph 9mph 1007mB
21:00 2320m -1°C -1_6 1cm 99% 6mph 9mph 1009mB
0:00 2212m -1°C -1_7 3cm 100% 7mph 10mph 1010mB
3:00 2092m -2°C -2_8 3cm 100% 8mph 11mph 1010mB
6:00 2138m -2°C -2_8 3cm 100% 8mph 11mph 1011mB
9:00 2229m -2°C -2_9 3cm 100% 9mph 12mph 1013mB
12:00 2333m 0°C 0_8 2cm 100% 8mph 11mph 1014mB
15:00 2380m 1°C 1_8 2cm 100% 8mph 11mph 1014mB
18:00 2306m 1°C 1_7 1cm 100% 7mph 10mph 1017mB
21:00 2012m -2°C -2_7 1cm 99% 7mph 8mph 1020mB
0:00 1794m -4°C -4_6 1cm 92% 6mph 8mph 1022mB
3:00 1635m -5°C -5_6 1cm 67% 6mph 7mph 1023mB
6:00 2232m -5°C -5_7 1cm 48% 7mph 9mph 1023mB
9:00 2496m -1°C -1_6 0cm 1% 6mph 7mph 1023mB
12:00 2701m 4°C 4_6 0cm 13% 6mph 6mph 1023mB
15:00 2827m 5°C 5_7 0cm 6% 7mph 8mph 1023mB
18:00 2780m 5°C 5_6 0cm 14% 6mph 7mph 1024mB
21:00 1949m -3°C -3_5 0cm 26% 5mph 6mph 1027mB
0:00 1900m -3°C -3_5 0cm 41% 5mph 6mph 1028mB
3:00 1890m -3°C -3_5 0cm 62% 5mph 6mph 1028mB
6:00 2868m -3°C -3_5 0cm 65% 5mph 7mph 1028mB
9:00 3000m 3°C 3_5 0cm 71% 5mph 9mph 1027mB
12:00 3159m 9°C 9_7 0cm 71% 7mph 9mph 1026mB
15:00 3244m 9°C 9_7 0cm 69% 7mph 9mph 1025mB
18:00 3242m 9°C 9_6 0cm 74% 6mph 8mph 1026mB
21:00 3279m 2°C 2_5 0cm 87% 5mph 7mph 1028mB
0:00 3288m 2°C 2_5 0cm 90% 5mph 7mph 1028mB
3:00 3348m 1°C 1_5 0cm 84% 5mph 7mph 1028mB
6:00 3426m 1°C 1_5 0cm 81% 5mph 7mph 1027mB
9:00 3367m 5°C 5_5 0cm 70% 5mph 7mph 1027mB
12:00 3550m 12°C 12_5 0cm 67% 5mph 6mph 1025mB
15:00 3652m 12°C 12_6 0cm 56% 6mph 7mph 1024mB
18:00 3626m 12°C 12_5 0cm 69% 5mph 6mph 1025mB
21:00 3667m 4°C 4_5 0cm 38% 5mph 6mph 1027mB
0:00 3774m 2°C 2_4 0cm 25% 4mph 5mph 1028mB
3:00 3778m 1°C 1_3 0cm 9% 3mph 4mph 1027mB
6:00 3833m 1°C 1_2 0cm 5% 2mph 2mph 1027mB
9:00 3744m 8°C 8_1 0cm 0% 1mph 2mph 1025mB
12:00 3792m 16°C 16_1 0cm 0% 1mph 3mph 1023mB
15:00 3862m 10°C 10_8 0cm 0% 8mph 9mph 1023mB
18:00 3989m 10°C 10_4 0cm 0% 4mph 4mph 1023mB
21:00 3969m 2°C 2_4 0cm 0% 4mph 6mph 1024mB
0:00 4020m 2°C 2_6 0cm 1% 6mph 8mph 1024mB
3:00 3613m 2°C 2_5 0cm 1% 5mph 6mph 1023mB
6:00 3981m 1°C 1_3 0cm 1% 3mph 4mph 1022mB
9:00 3901m 6°C 6_2 0cm 0% 2mph 3mph 1021mB
12:00 3866m 11°C 11_5 0cm 0% 5mph 5mph 1019mB
15:00 3896m 11°C 11_8 0cm 76% 8mph 9mph 1018mB
18:00 3951m 11°C 11_7 0cm 76% 7mph 9mph 1019mB
21:00 3935m 4°C 4_3 0cm 100% 3mph 4mph 1021mB
0:00 3956m 3°C 3_3 0cm 100% 3mph 4mph 1021mB
3:00 3983m 2°C 2_3 0cm 100% 3mph 4mph 1021mB
6:00 3975m 1°C 1_3 0cm 99% 3mph 3mph 1020mB
9:00 3922m 6°C 6_3 0cm 90% 3mph 3mph 1019mB
12:00 3872m 11°C 11_5 0cm 83% 5mph 4mph 1017mB
15:00 3941m 12°C 12_5 0cm 54% 5mph 6mph 1017mB
18:00 3951m 12°C 12_3 0cm 76% 3mph 4mph 1018mB
21:00 3929m 6°C 6_2 0cm 100% 2mph 3mph 1020mB
0:00 3967m 6°C 6_4 0cm 100% 4mph 5mph 1020mB
Afternoon 0.015625mm 0.125 3891m 13°C 13_5 0cm 78% 5mph 6mph 1018mB
Morning 1.28646mm 6.6875 3844m 6°C 6_8 0cm 100% 8mph 8mph 1022mB
Afternoon 0.21875mm 2.5625 3803m 12°C 12_3 0cm 98% 3mph 4mph 1019mB
Morning 0.953125mm 10.6875 3841m 5°C 5_3 0cm 100% 3mph 4mph 1021mB
Afternoon 0.135417mm 1.625 3758m 17°C 17_8 0cm 37% 8mph 6mph 1017mB
Morning 0.973958mm 11.6875 3732m 4°C 4_5 0cm 88% 5mph 6mph 1018mB
Afternoon 0.00520833mm 0.0625 3762m 17°C 17_5 0cm 11% 5mph 5mph 1014mB
Morning 0.9375mm 11.25 3641m 5°C 5_5 0cm 95% 5mph 6mph 1015mB
Afternoon 0.567708mm 6.75 3510m 12°C 12_2 0cm 98% 2mph 2mph 1013mB
Morning 0.567708mm 6.25 3426m 3°C 3_4 0cm 92% 4mph 5mph 1015mB
Afternoon 0.171875mm 2 3599m 15°C 15_12 0cm 68% 12mph 12mph 1013mB
Morning 0.713542mm 8.5625 3532m 5°C 5_6 0cm 39% 6mph 7mph 1016mB

16 day outlook at a glance

Forecast issued: 26/05/2019 11:26:04

Chat

Your comments and questions. In a resort? Let us know what it's like!


Characters left 250

For terms and conditions see Readers Comments on the Cookie and privacy policy page.